Weather in Hultsfred

Sweden     57°29′37″N   15°50′39″E
temp.,
°C
wind,
m/s
gust,
m/s
humid.,
%
clouds,
%
prec.,
mm/h
press.,
hPa
HPBL,
m
14 april, wed
wed1423:00−1wnw25855 0.0 102388
02:00−2wnw26895 0.0 1023139
05:00−2wnw26905 0.0 1024136
08:00+2nnw36652 0.0 1025414
11:00+6nne344025 0.0 10261741
14:00+8nne3429100 0.0 10262537
17:00+8ne3433100 0.0 10272136
20:00+2ese1163100 0.0 102910
15 april, thu
thu1523:000nw1170100 0.0 103110
02:00−1n227998 0.0 103128
05:00−1n287893 0.0 1031170
08:00+2nne396995 0.0 1032390
11:00+7ne5749100 0.0 10321423
14:00+7ne5739100 0.0 10321449
17:00+7ne5841100 0.0 10321220
20:00+2ne376481 0.0 1033243
16 april, fri
fri1623:00−1nne298088 0.0 1033212
02:00−1n310895 0.0 1033246
05:00−1n310896 0.0 1032259
08:00+3nne410615 0.0 1032445
11:00+8ne58415 0.0 10311272
14:00+9ne68331 0.0 10311325
17:00+8ne68331 0.0 10311105
20:00+3ne4125568 0.0 1031607
17 april, sat
sat1723:00+3ne4115999 0.0 1031566
02:00+2nne4106790 0.0 1031445
05:00+1nne397778 0.0 1030294
08:00+3nne377093 0.0 1030330
11:00+6ne3664100 0.0 1030507
14:00+9ne4552100 0.0 1029926
17:00+7ne3663100 0.0 1029586
20:00+5ne2675100 0.0 1029354
18 april, sun
sun1823:00+4ne2681100 0.0 1029268
02:00+4ne248596 0.0 1029172
05:00+2nne119640 0.0 102919
08:00+6nne128082 0.0 1028189
11:00+12e245551 0.0 10271124
14:00+13ene2357100 0.0 10261085
17:00+12ene3466100 0.0 1026705
20:00+8ene2580100 0.0 1026201